Terminal Aerodrome Forecast
Issued by NWS

Home | Current Version | Previous Version | Graphics & Text | Print | Product List | Glossary On
Versions: 1 2 3 4 5 6 7 8 9 10 11 12 13 14 15 16 17 18 19 20 21 22 23
000
FTUS43 KBIS 041411 AAA
TAFJMS
TAF AMD
KJMS 041411Z 0414/0512 19006KT 2SM FU FEW040
     FM041600 18009KT 5SM FU SCT040
     FM042000 18015KT P6SM SCT050 SCT080
     FM050600 18010KT P6SM SCT035 SCT050 OVC080=

USA.gov is the U.S. government's official web portal to all federal, state and local government web resources and services.